| time (UTC) | temp C | wind direction | speed KPH | gust KPH | rain 1hr cm | rain 24hr cm | rain mn cm | humidity % | barometer mb |
| 20260504151101 | -17 | 101 | 14.5 | 14.5 | 0.00 | 0.00 | 0.00 | -999.0 | |
| 20260504151001 | -17 | 107 | 14.5 | 14.5 | 0.00 | 0.00 | 0.00 | -999.0 | |
| 20260504150901 | -17 | 91 | 14.5 | 14.5 | 0.00 | 0.00 | 0.00 | -999.0 | |
| 20260504150801 | -17 | 115 | 14.5 | 14.5 | 0.00 | 0.00 | 0.00 | -999.0 | |
| 20260504150701 | -17 | 96 | 11.3 | 11.3 | 0.00 | 0.00 | 0.00 | -999.0 | |
| 20260504150500 | -17 | 96 | 12.9 | 12.9 | 0.00 | 0.00 | 0.00 | -999.0 | |
| 20260504150401 | -17 | 94 | 12.9 | 12.9 | 0.00 | 0.00 | 0.00 | -999.0 | |
| 20260504150200 | -17 | 103 | 12.9 | 12.9 | 0.00 | 0.00 | 0.00 | -999.0 | |
| 20260504141300 | -17 | 88 | 12.9 | 12.9 | 0.00 | 0.00 | 0.00 | -999.0 | |
| 20260504141201 | -17 | 86 | 12.9 | 12.9 | 0.00 | 0.00 | 0.00 | -999.0 | |
| 20260504141100 | -17 | 89 | 11.3 | 11.3 | 0.00 | 0.00 | 0.00 | -999.0 | |
| 20260504141001 | -17 | 78 | 11.3 | 11.3 | 0.00 | 0.00 | 0.00 | -999.0 | |
| 20260504140900 | -17 | 84 | 12.9 | 12.9 | 0.00 | 0.00 | 0.00 | -999.0 | |
| 20260504140800 | -17 | 86 | 11.3 | 11.3 | 0.00 | 0.00 | 0.00 | -999.0 | |
| 20260504140701 | -17 | 86 | 11.3 | 11.3 | 0.00 | 0.00 | 0.00 | -999.0 | |
| 20260504140600 | -17 | 82 | 12.9 | 12.9 | 0.00 | 0.00 | 0.00 | -999.0 | |
| 20260504140501 | -17 | 84 | 11.3 | 11.3 | 0.00 | 0.00 | 0.00 | -999.0 | |
| 20260504140401 | -17 | 86 | 12.9 | 12.9 | 0.00 | 0.00 | 0.00 | -999.0 | |
| 20260504140200 | -17 | 84 | 11.3 | 11.3 | 0.00 | 0.00 | 0.00 | -999.0 | |
| 20260504130800 | -17 | 79 | 16.1 | 16.1 | 0.00 | 0.00 | 0.00 | -999.0 | |
| 20260504130500 | -17 | 77 | 16.1 | 16.1 | 0.00 | 0.00 | 0.00 | -999.0 | |
| 20260504130400 | -17 | 83 | 17.7 | 17.7 | 0.00 | 0.00 | 0.00 | -999.0 | |
| 20260504130301 | -17 | 76 | 19.3 | 19.3 | 0.00 | 0.00 | 0.00 | -999.0 | |
| 20260504130202 | -17 | 77 | 17.7 | 17.7 | 0.00 | 0.00 | 0.00 | -999.0 | |
| 20260504120300 | -17 | 23 | 4.8 | 4.8 | 0.00 | 0.00 | 0.00 | -999.0 | |
| 20260504120201 | -17 | 28 | 0.0 | 0.0 | 0.00 | 0.00 | 0.00 | -999.0 | |
| 20260504110701 | -17 | 15 | 8.0 | 8.0 | 0.00 | 0.00 | 0.00 | -999.0 | |
| 20260504110600 | -17 | 19 | 6.4 | 6.4 | 0.00 | 0.00 | 0.00 | -999.0 | |
| 20260504110500 | -17 | 16 | 4.8 | 4.8 | 0.00 | 0.00 | 0.00 | -999.0 | |
| 20260504110400 | -17 | 22 | 4.8 | 4.8 | 0.00 | 0.00 | 0.00 | -999.0 | |
| 20260504100601 | -17 | 295 | 0.0 | 0.0 | 0.00 | 0.00 | 0.00 | -999.0 | |
| 20260504100501 | -17 | 309 | 1.6 | 1.6 | 0.00 | 0.00 | 0.00 | -999.0 | |
| 20260504100401 | -17 | 308 | 1.6 | 1.6 | 0.00 | 0.00 | 0.00 | -999.0 | |
| 20260504100200 | -17 | 314 | 3.2 | 3.2 | 0.00 | 0.00 | 0.00 | -999.0 | |
| 20260504082000 | -17 | 23 | 3.2 | 3.2 | 0.00 | 0.00 | 0.00 | -999.0 | |
| 20260504081901 | -17 | 24 | 1.6 | 1.6 | 0.00 | 0.00 | 0.00 | -999.0 | |
| 20260504081801 | -17 | 37 | 1.6 | 1.6 | 0.00 | 0.00 | 0.00 | -999.0 | |
| 20260504081700 | -17 | 12 | 3.2 | 3.2 | 0.00 | 0.00 | 0.00 | -999.0 | |
| 20260504081600 | -17 | 13 | 4.8 | 4.8 | 0.00 | 0.00 | 0.00 | -999.0 | |
| 20260504081501 | -17 | 18 | 6.4 | 6.4 | 0.00 | 0.00 | 0.00 | -999.0 | |
| 20260504081201 | -17 | 8 | 4.8 | 4.8 | 0.00 | 0.00 | 0.00 | -999.0 | |
| 20260504081101 | -17 | 343 | 4.8 | 4.8 | 0.00 | 0.00 | 0.00 | -999.0 | |
| 20260504081001 | -17 | 12 | 8.0 | 8.0 | 0.00 | 0.00 | 0.00 | -999.0 | |
| 20260504080901 | -17 | 339 | 6.4 | 6.4 | 0.00 | 0.00 | 0.00 | -999.0 | |
| 20260504080801 | -17 | 11 | 6.4 | 6.4 | 0.00 | 0.00 | 0.00 | -999.0 | |
| 20260504080701 | -17 | 16 | 8.0 | 8.0 | 0.00 | 0.00 | 0.00 | -999.0 | |
| 20260504080601 | -17 | 344 | 6.4 | 6.4 | 0.00 | 0.00 | 0.00 | -999.0 | |
| 20260504080500 | -17 | 350 | 4.8 | 4.8 | 0.00 | 0.00 | 0.00 | -999.0 | |
| 20260504080401 | -17 | 2 | 4.8 | 4.8 | 0.00 | 0.00 | 0.00 | -999.0 | |
| 20260504080300 | -17 | 11 | 6.4 | 6.4 | 0.00 | 0.00 | 0.00 | -999.0 | |
| 20260504080200 | -17 | 13 | 8.0 | 8.0 | 0.00 | 0.00 | 0.00 | -999.0 | |
| 20260504070401 | -17 | 336 | 4.8 | 4.8 | 0.00 | 0.00 | 0.00 | -999.0 | |
| 20260504070301 | -17 | 345 | 6.4 | 6.4 | 0.00 | 0.00 | 0.00 | -999.0 | |
| 20260504070200 | -17 | 355 | 6.4 | 6.4 | 0.00 | 0.00 | 0.00 | -999.0 | |
| 20260504060200 | -17 | 322 | 3.2 | 3.2 | 0.00 | 0.00 | 0.00 | -999.0 | |
| 20260504050700 | -17 | 341 | 4.8 | 4.8 | 0.00 | 0.00 | 0.00 | -999.0 | |
| 20260504050400 | -17 | 322 | 6.4 | 6.4 | 0.00 | 0.00 | 0.00 | -999.0 | |
| 20260504050300 | -17 | 333 | 4.8 | 4.8 | 0.00 | 0.00 | 0.00 | -999.0 | |
| 20260504050200 | -17 | 327 | 6.4 | 6.4 | 0.00 | 0.00 | 0.00 | -999.0 | |
| 20260504050001 | -17 | 314 | 3.2 | 3.2 | 0.00 | 0.00 | 0.00 | -999.0 | |
| 20260504045901 | -17 | 323 | 3.2 | 3.2 | 0.00 | 0.00 | 0.00 | -999.0 | |
| 20260504045800 | -17 | 306 | 3.2 | 3.2 | 0.00 | 0.00 | 0.00 | -999.0 | |
| 20260504045700 | -17 | 307 | 4.8 | 4.8 | 0.00 | 0.00 | 0.00 | -999.0 | |
| 20260504045600 | -17 | 307 | 4.8 | 4.8 | 0.00 | 0.00 | 0.00 | -999.0 | |
| 20260504045500 | -17 | 317 | 3.2 | 3.2 | 0.00 | 0.00 | 0.00 | -999.0 | |
| 20260504045201 | -17 | 307 | 6.4 | 6.4 | 0.00 | 0.00 | 0.00 | -999.0 | |
| 20260504045101 | -17 | 304 | 3.2 | 3.2 | 0.00 | 0.00 | 0.00 | -999.0 | |
| 20260504044900 | -17 | 314 | 6.4 | 6.4 | 0.00 | 0.00 | 0.00 | -999.0 | |
| 20260504044700 | -17 | 347 | 4.8 | 4.8 | 0.00 | 0.00 | 0.00 | -999.0 | |
| 20260504044500 | -17 | 333 | 8.0 | 8.0 | 0.00 | 0.00 | 0.00 | -999.0 | |
| 20260504044301 | -17 | 316 | 6.4 | 6.4 | 0.00 | 0.00 | 0.00 | -999.0 | |
| 20260504044201 | -17 | 310 | 8.0 | 8.0 | 0.00 | 0.00 | 0.00 | -999.0 | |
| 20260504044100 | -17 | 321 | 6.4 | 6.4 | 0.00 | 0.00 | 0.00 | -999.0 | |
| 20260504044001 | -17 | 333 | 4.8 | 4.8 | 0.00 | 0.00 | 0.00 | -999.0 | |
| 20260504043900 | -17 | 323 | 4.8 | 4.8 | 0.00 | 0.00 | 0.00 | -999.0 | |
| 20260504043801 | -17 | 330 | 6.4 | 6.4 | 0.00 | 0.00 | 0.00 | -999.0 | |
| 20260504043701 | -17 | 350 | 4.8 | 4.8 | 0.00 | 0.00 | 0.00 | -999.0 | |
| 20260504043600 | -17 | 328 | 8.0 | 8.0 | 0.00 | 0.00 | 0.00 | -999.0 | |
| 20260504043501 | -17 | 322 | 6.4 | 6.4 | 0.00 | 0.00 | 0.00 | -999.0 | |
| 20260504043401 | -17 | 319 | 8.0 | 8.0 | 0.00 | 0.00 | 0.00 | -999.0 | |
| 20260504043200 | -17 | 299 | 6.4 | 6.4 | 0.00 | 0.00 | 0.00 | -999.0 | |
| 20260504043100 | -17 | 307 | 6.4 | 6.4 | 0.00 | 0.00 | 0.00 | -999.0 | |
| 20260504042900 | -17 | 303 | 6.4 | 6.4 | 0.00 | 0.00 | 0.00 | -999.0 | |
| 20260504042800 | -17 | 306 | 6.4 | 6.4 | 0.00 | 0.00 | 0.00 | -999.0 | |
| 20260504042700 | -17 | 311 | 4.8 | 4.8 | 0.00 | 0.00 | 0.00 | -999.0 | |
| 20260504042600 | -17 | 300 | 6.4 | 6.4 | 0.00 | 0.00 | 0.00 | -999.0 | |
| 20260504042401 | -17 | 308 | 6.4 | 6.4 | 0.00 | 0.00 | 0.00 | -999.0 | |
| 20260504042300 | -17 | 307 | 8.0 | 8.0 | 0.00 | 0.00 | 0.00 | -999.0 | |
| 20260504042200 | -17 | 292 | 8.0 | 8.0 | 0.00 | 0.00 | 0.00 | -999.0 | |
| 20260504042101 | -17 | 295 | 9.7 | 9.7 | 0.00 | 0.00 | 0.00 | -999.0 | |
| 20260504042000 | -17 | 297 | 8.0 | 8.0 | 0.00 | 0.00 | 0.00 | -999.0 | |
| 20260504041901 | -17 | 290 | 6.4 | 6.4 | 0.00 | 0.00 | 0.00 | -999.0 | |
| 20260504041800 | -17 | 300 | 9.7 | 9.7 | 0.00 | 0.00 | 0.00 | -999.0 | |
| 20260504041701 | -17 | 294 | 6.4 | 6.4 | 0.00 | 0.00 | 0.00 | -999.0 | |
| 20260504041600 | -17 | 300 | 6.4 | 6.4 | 0.00 | 0.00 | 0.00 | -999.0 | |
| 20260504041501 | -17 | 302 | 8.0 | 8.0 | 0.00 | 0.00 | 0.00 | -999.0 | |
| 20260504041400 | -17 | 295 | 8.0 | 8.0 | 0.00 | 0.00 | 0.00 | -999.0 | |
| 20260504041200 | -17 | 297 | 4.8 | 4.8 | 0.00 | 0.00 | 0.00 | -999.0 | |
| 20260504041101 | -17 | 298 | 4.8 | 4.8 | 0.00 | 0.00 | 0.00 | -999.0 | |
| 20260504041000 | -17 | 310 | 4.8 | 4.8 | 0.00 | 0.00 | 0.00 | -999.0 | |
| 20260504040800 | -17 | 319 | 4.8 | 4.8 | 0.00 | 0.00 | 0.00 | -999.0 | |
| 20260504040700 | -17 | 319 | 3.2 | 3.2 | 0.00 | 0.00 | 0.00 | -999.0 | |
| 20260504040600 | -17 | 304 | 4.8 | 4.8 | 0.00 | 0.00 | 0.00 | -999.0 | |
| 20260504040501 | -17 | 312 | 4.8 | 4.8 | 0.00 | 0.00 | 0.00 | -999.0 | |
| 20260504040400 | -17 | 317 | 4.8 | 4.8 | 0.00 | 0.00 | 0.00 | -999.0 | |
| 20260504040300 | -17 | 313 | 1.6 | 1.6 | 0.00 | 0.00 | 0.00 | -999.0 | |
| 20260504040200 | -17 | 319 | 4.8 | 4.8 | 0.00 | 0.00 | 0.00 | -999.0 | |
| 20260504040100 | -17 | 306 | 4.8 | 4.8 | 0.00 | 0.00 | 0.00 | -999.0 | |
| 20260504035801 | -17 | 306 | 6.4 | 6.4 | 0.00 | 0.00 | 0.00 | -999.0 | |
| 20260504035600 | -17 | 313 | 6.4 | 6.4 | 0.00 | 0.00 | 0.00 | -999.0 | |
| 20260504035501 | -17 | 307 | 6.4 | 6.4 | 0.00 | 0.00 | 0.00 | -999.0 | |
| 20260504035401 | -17 | 329 | 6.4 | 6.4 | 0.00 | 0.00 | 0.00 | -999.0 | |
| 20260504035301 | -17 | 316 | 6.4 | 6.4 | 0.00 | 0.00 | 0.00 | -999.0 | |
| 20260504035200 | -17 | 302 | 6.4 | 6.4 | 0.00 | 0.00 | 0.00 | -999.0 | |
| 20260504035101 | -17 | 307 | 6.4 | 6.4 | 0.00 | 0.00 | 0.00 | -999.0 | |
| 20260504035000 | -17 | 307 | 6.4 | 6.4 | 0.00 | 0.00 | 0.00 | -999.0 | |
| 20260504034700 | -17 | 298 | 8.0 | 8.0 | 0.00 | 0.00 | 0.00 | -999.0 | |
| 20260504034601 | -17 | 301 | 8.0 | 8.0 | 0.00 | 0.00 | 0.00 | -999.0 | |
| 20260504034500 | -17 | 302 | 11.3 | 11.3 | 0.00 | 0.00 | 0.00 | -999.0 | |
| 20260504034400 | -17 | 300 | 9.7 | 9.7 | 0.00 | 0.00 | 0.00 | -999.0 | |
| 20260504034301 | -17 | 293 | 9.7 | 9.7 | 0.00 | 0.00 | 0.00 | -999.0 | |
| 20260504034200 | -17 | 292 | 11.3 | 11.3 | 0.00 | 0.00 | 0.00 | -999.0 | |
| 20260504034100 | -17 | 297 | 9.7 | 9.7 | 0.00 | 0.00 | 0.00 | -999.0 | |
| 20260504034001 | -17 | 304 | 8.0 | 8.0 | 0.00 | 0.00 | 0.00 | -999.0 | |
| 20260504033900 | -17 | 300 | 9.7 | 9.7 | 0.00 | 0.00 | 0.00 | -999.0 | |
| 20260504033800 | -17 | 305 | 9.7 | 9.7 | 0.00 | 0.00 | 0.00 | -999.0 | |
| 20260504033501 | -17 | 293 | 11.3 | 11.3 | 0.00 | 0.00 | 0.00 | -999.0 | |
| 20260504033400 | -17 | 302 | 12.9 | 12.9 | 0.00 | 0.00 | 0.00 | -999.0 | |
| 20260504033301 | -17 | 298 | 11.3 | 11.3 | 0.00 | 0.00 | 0.00 | -999.0 | |
| 20260504033201 | -17 | 293 | 12.9 | 12.9 | 0.00 | 0.00 | 0.00 | -999.0 | |
| 20260504033001 | -17 | 293 | 12.9 | 12.9 | 0.00 | 0.00 | 0.00 | -999.0 | |
| 20260504032900 | -17 | 295 | 12.9 | 12.9 | 0.00 | 0.00 | 0.00 | -999.0 | |
| 20260504032700 | -17 | 292 | 11.3 | 11.3 | 0.00 | 0.00 | 0.00 | -999.0 | |
| 20260504032601 | -17 | 288 | 12.9 | 12.9 | 0.00 | 0.00 | 0.00 | -999.0 | |
| 20260504032501 | -17 | 283 | 12.9 | 12.9 | 0.00 | 0.00 | 0.00 | -999.0 | |
| 20260504032401 | -17 | 286 | 12.9 | 12.9 | 0.00 | 0.00 | 0.00 | -999.0 | |
| 20260504032300 | -17 | 290 | 12.9 | 12.9 | 0.00 | 0.00 | 0.00 | -999.0 | |
| 20260504032201 | -17 | 283 | 12.9 | 12.9 | 0.00 | 0.00 | 0.00 | -999.0 | |
| 20260504032101 | -17 | 283 | 12.9 | 12.9 | 0.00 | 0.00 | 0.00 | -999.0 | |
| 20260504032001 | -17 | 278 | 12.9 | 12.9 | 0.00 | 0.00 | 0.00 | -999.0 | |
| 20260504031901 | -17 | 284 | 14.5 | 14.5 | 0.00 | 0.00 | 0.00 | -999.0 | |
| 20260504031801 | -17 | 294 | 14.5 | 14.5 | 0.00 | 0.00 | 0.00 | -999.0 | |
| 20260504031701 | -17 | 286 | 12.9 | 12.9 | 0.00 | 0.00 | 0.00 | -999.0 | |
| 20260504031600 | -17 | 284 | 12.9 | 12.9 | 0.00 | 0.00 | 0.00 | -999.0 | |
| 20260504031500 | -17 | 281 | 16.1 | 16.1 | 0.00 | 0.00 | 0.00 | -999.0 | |
| 20260504031401 | -17 | 287 | 14.5 | 14.5 | 0.00 | 0.00 | 0.00 | -999.0 | |
| 20260504031300 | -17 | 288 | 12.9 | 12.9 | 0.00 | 0.00 | 0.00 | -999.0 | |
| 20260504031201 | -17 | 285 | 14.5 | 14.5 | 0.00 | 0.00 | 0.00 | -999.0 | |
| 20260504030900 | -17 | 286 | 14.5 | 14.5 | 0.00 | 0.00 | 0.00 | -999.0 | |
| 20260504030801 | -17 | 280 | 14.5 | 14.5 | 0.00 | 0.00 | 0.00 | -999.0 | |
| 20260504030701 | -17 | 283 | 14.5 | 14.5 | 0.00 | 0.00 | 0.00 | -999.0 | |
| 20260504030601 | -17 | 271 | 12.9 | 12.9 | 0.00 | 0.00 | 0.00 | -999.0 | |
| 20260504030501 | -17 | 282 | 14.5 | 14.5 | 0.00 | 0.00 | 0.00 | -999.0 | |
| 20260504030400 | -17 | 284 | 12.9 | 12.9 | 0.00 | 0.00 | 0.00 | -999.0 | |
| 20260504030301 | -17 | 284 | 12.9 | 12.9 | 0.00 | 0.00 | 0.00 | -999.0 | |
| 20260504030100 | -17 | 283 | 14.5 | 14.5 | 0.00 | 0.00 | 0.00 | -999.0 | |
| 20260504030001 | -17 | 285 | 12.9 | 12.9 | 0.00 | 0.00 | 0.00 | -999.0 | |
| 20260504025701 | -17 | 283 | 14.5 | 14.5 | 0.00 | 0.00 | 0.00 | -999.0 | |
| 20260504025601 | -17 | 282 | 16.1 | 16.1 | 0.00 | 0.00 | 0.00 | -999.0 | |
| 20260504025502 | -17 | 288 | 12.9 | 12.9 | 0.00 | 0.00 | 0.00 | -999.0 | |
| 20260504025401 | -17 | 270 | 14.5 | 14.5 | 0.00 | 0.00 | 0.00 | -999.0 | |
| 20260504025301 | -17 | 274 | 14.5 | 14.5 | 0.00 | 0.00 | 0.00 | -999.0 | |
| 20260504025201 | -17 | 286 | 14.5 | 14.5 | 0.00 | 0.00 | 0.00 | -999.0 | |
| 20260504025100 | -17 | 278 | 12.9 | 12.9 | 0.00 | 0.00 | 0.00 | -999.0 | |
| 20260504025000 | -17 | 271 | 14.5 | 14.5 | 0.00 | 0.00 | 0.00 | -999.0 | |
| 20260504024900 | -17 | 284 | 16.1 | 16.1 | 0.00 | 0.00 | 0.00 | -999.0 | |
| 20260504024800 | -17 | 287 | 17.7 | 17.7 | 0.00 | 0.00 | 0.00 | -999.0 | |
| 20260504024700 | -17 | 285 | 14.5 | 14.5 | 0.00 | 0.00 | 0.00 | -999.0 | |
| 20260504024600 | -17 | 290 | 14.5 | 14.5 | 0.00 | 0.00 | 0.00 | -999.0 | |
| 20260504024500 | -17 | 281 | 11.3 | 11.3 | 0.00 | 0.00 | 0.00 | -999.0 | |
| 20260504024401 | -17 | 272 | 14.5 | 14.5 | 0.00 | 0.00 | 0.00 | -999.0 | |
| 20260504024201 | -17 | 282 | 14.5 | 14.5 | 0.00 | 0.00 | 0.00 | -999.0 | |
| 20260504024101 | -17 | 278 | 14.5 | 14.5 | 0.00 | 0.00 | 0.00 | -999.0 | |
| 20260504024002 | -17 | 281 | 14.5 | 14.5 | 0.00 | 0.00 | 0.00 | -999.0 | |
| 20260504023801 | -17 | 272 | 12.9 | 12.9 | 0.00 | 0.00 | 0.00 | -999.0 | |
| 20260504023701 | -17 | 285 | 12.9 | 12.9 | 0.00 | 0.00 | 0.00 | -999.0 | |
| 20260504023501 | -17 | 281 | 9.7 | 9.7 | 0.00 | 0.00 | 0.00 | -999.0 | |
| 20260504023400 | -17 | 278 | 11.3 | 11.3 | 0.00 | 0.00 | 0.00 | -999.0 | |
| 20260504023300 | -17 | 274 | 11.3 | 11.3 | 0.00 | 0.00 | 0.00 | -999.0 | |
| 20260504023201 | -17 | 275 | 9.7 | 9.7 | 0.00 | 0.00 | 0.00 | -999.0 | |
| 20260504023100 | -17 | 275 | 8.0 | 8.0 | 0.00 | 0.00 | 0.00 | -999.0 | |
| 20260504023000 | -17 | 264 | 9.7 | 9.7 | 0.00 | 0.00 | 0.00 | -999.0 | |
| 20260504022800 | -17 | 266 | 9.7 | 9.7 | 0.00 | 0.00 | 0.00 | -999.0 | |
| 20260504022700 | -17 | 265 | 9.7 | 9.7 | 0.00 | 0.00 | 0.00 | -999.0 | |
| 20260504022601 | -17 | 269 | 8.0 | 8.0 | 0.00 | 0.00 | 0.00 | -999.0 | |
| 20260504022501 | -17 | 272 | 8.0 | 8.0 | 0.00 | 0.00 | 0.00 | -999.0 | |
| 20260504022401 | -17 | 281 | 8.0 | 8.0 | 0.00 | 0.00 | 0.00 | -999.0 | |
| 20260504022300 | -17 | 278 | 6.4 | 6.4 | 0.00 | 0.00 | 0.00 | -999.0 | |
| 20260504022200 | -17 | 283 | 8.0 | 8.0 | 0.00 | 0.00 | 0.00 | -999.0 | |
| 20260504022101 | -17 | 285 | 6.4 | 6.4 | 0.00 | 0.00 | 0.00 | -999.0 | |
| 20260504022000 | -17 | 281 | 6.4 | 6.4 | 0.00 | 0.00 | 0.00 | -999.0 | |
| 20260504021701 | -17 | 284 | 6.4 | 6.4 | 0.00 | 0.00 | 0.00 | -999.0 | |
| 20260504021601 | -17 | 280 | 8.0 | 8.0 | 0.00 | 0.00 | 0.00 | -999.0 | |
| 20260504021501 | -17 | 278 | 6.4 | 6.4 | 0.00 | 0.00 | 0.00 | -999.0 | |
| 20260504021400 | -17 | 284 | 6.4 | 6.4 | 0.00 | 0.00 | 0.00 | -999.0 | |
| 20260504021001 | -17 | 278 | 8.0 | 8.0 | 0.00 | 0.00 | 0.00 | -999.0 | |
| 20260504020900 | -17 | 290 | 9.7 | 9.7 | 0.00 | 0.00 | 0.00 | -999.0 | |
| 20260504020700 | -17 | 281 | 9.7 | 9.7 | 0.00 | 0.00 | 0.00 | -999.0 | |
| 20260504020600 | -17 | 279 | 11.3 | 11.3 | 0.00 | 0.00 | 0.00 | -999.0 | |
| 20260504020500 | -17 | 266 | 11.3 | 11.3 | 0.00 | 0.00 | 0.00 | -999.0 | |
| 20260504020401 | -17 | 267 | 12.9 | 12.9 | 0.00 | 0.00 | 0.00 | -999.0 | |
| 20260504020101 | -17 | 269 | 9.7 | 9.7 | 0.00 | 0.00 | 0.00 | -999.0 | |
| 20260504020001 | -17 | 267 | 12.9 | 12.9 | 0.00 | 0.00 | 0.00 | -999.0 | |
| 20260504015901 | -17 | 275 | 12.9 | 12.9 | 0.00 | 0.00 | 0.00 | -999.0 | |
| 20260504015700 | -17 | 240 | 8.0 | 8.0 | 0.00 | 0.00 | 0.00 | -999.0 | |
| 20260504015600 | -17 | 249 | 6.4 | 6.4 | 0.00 | 0.00 | 0.00 | -999.0 | |
| 20260504015500 | -17 | 252 | 8.0 | 8.0 | 0.00 | 0.00 | 0.00 | -999.0 | |
| 20260504015300 | -17 | 271 | 8.0 | 8.0 | 0.00 | 0.00 | 0.00 | -999.0 | |
| 20260504015201 | -17 | 280 | 6.4 | 6.4 | 0.00 | 0.00 | 0.00 | -999.0 | |
| 20260504015100 | -17 | 276 | 9.7 | 9.7 | 0.00 | 0.00 | 0.00 | -999.0 | |
| 20260504015000 | -17 | 271 | 8.0 | 8.0 | 0.00 | 0.00 | 0.00 | -999.0 | |
| 20260504014900 | -17 | 272 | 8.0 | 8.0 | 0.00 | 0.00 | 0.00 | -999.0 | |
| 20260504014700 | -17 | 254 | 6.4 | 6.4 | 0.00 | 0.00 | 0.00 | -999.0 | |
| 20260504014500 | -17 | 254 | 8.0 | 8.0 | 0.00 | 0.00 | 0.00 | -999.0 | |
| 20260504014400 | -17 | 257 | 8.0 | 8.0 | 0.00 | 0.00 | 0.00 | -999.0 | |
| 20260504014300 | -17 | 257 | 9.7 | 9.7 | 0.00 | 0.00 | 0.00 | -999.0 | |
| 20260504014200 | -17 | 267 | 9.7 | 9.7 | 0.00 | 0.00 | 0.00 | -999.0 | |
| 20260504014100 | -17 | 259 | 8.0 | 8.0 | 0.00 | 0.00 | 0.00 | -999.0 | |
| 20260504013900 | -17 | 264 | 8.0 | 8.0 | 0.00 | 0.00 | 0.00 | -999.0 | |
| 20260504013800 | -17 | 257 | 9.7 | 9.7 | 0.00 | 0.00 | 0.00 | -999.0 | |
| 20260504013700 | -17 | 250 | 9.7 | 9.7 | 0.00 | 0.00 | 0.00 | -999.0 | |
| 20260504013601 | -17 | 245 | 9.7 | 9.7 | 0.00 | 0.00 | 0.00 | -999.0 | |
| 20260504013500 | -17 | 252 | 9.7 | 9.7 | 0.00 | 0.00 | 0.00 | -999.0 | |
| 20260504013400 | -17 | 260 | 8.0 | 8.0 | 0.00 | 0.00 | 0.00 | -999.0 | |
| 20260504013001 | -17 | 247 | 11.3 | 11.3 | 0.00 | 0.00 | 0.00 | -999.0 | |
| 20260504012800 | -17 | 252 | 11.3 | 11.3 | 0.00 | 0.00 | 0.00 | -999.0 | |
| 20260504012700 | -17 | 251 | 8.0 | 8.0 | 0.00 | 0.00 | 0.00 | -999.0 | |
| 20260504012600 | -17 | 261 | 11.3 | 11.3 | 0.00 | 0.00 | 0.00 | -999.0 | |
| 20260504012501 | -17 | 257 | 11.3 | 11.3 | 0.00 | 0.00 | 0.00 | -999.0 | |
| 20260504012400 | -17 | 259 | 11.3 | 11.3 | 0.00 | 0.00 | 0.00 | -999.0 | |
| 20260504012201 | -17 | 245 | 9.7 | 9.7 | 0.00 | 0.00 | 0.00 | -999.0 | |
| 20260504012000 | -17 | 245 | 12.9 | 12.9 | 0.00 | 0.00 | 0.00 | -999.0 | |
| 20260504011900 | -17 | 254 | 9.7 | 9.7 | 0.00 | 0.00 | 0.00 | -999.0 | |
| 20260504011800 | -17 | 255 | 8.0 | 8.0 | 0.00 | 0.00 | 0.00 | -999.0 | |
| 20260504011600 | -17 | 258 | 9.7 | 9.7 | 0.00 | 0.00 | 0.00 | -999.0 | |
| 20260504011500 | -17 | 243 | 9.7 | 9.7 | 0.00 | 0.00 | 0.00 | -999.0 | |
| 20260504011400 | -17 | 247 | 12.9 | 12.9 | 0.00 | 0.00 | 0.00 | -999.0 | |
| 20260504011300 | -17 | 238 | 9.7 | 9.7 | 0.00 | 0.00 | 0.00 | -999.0 | |
| 20260504011200 | -17 | 242 | 11.3 | 11.3 | 0.00 | 0.00 | 0.00 | -999.0 | |
| 20260504011100 | -17 | 246 | 14.5 | 14.5 | 0.00 | 0.00 | 0.00 | -999.0 | |
| 20260504011000 | -17 | 262 | 12.9 | 12.9 | 0.00 | 0.00 | 0.00 | -999.0 | |
| 20260504010900 | -17 | 251 | 11.3 | 11.3 | 0.00 | 0.00 | 0.00 | -999.0 | |
| 20260504010800 | -17 | 245 | 9.7 | 9.7 | 0.00 | 0.00 | 0.00 | -999.0 | |
| 20260504010500 | -17 | 244 | 8.0 | 8.0 | 0.00 | 0.00 | 0.00 | -999.0 | |
| 20260504010400 | -17 | 252 | 11.3 | 11.3 | 0.00 | 0.00 | 0.00 | -999.0 | |
| 20260504010200 | -17 | 260 | 9.7 | 9.7 | 0.00 | 0.00 | 0.00 | -999.0 | |
| 20260504010100 | -17 | 244 | 12.9 | 12.9 | 0.00 | 0.00 | 0.00 | -999.0 | |
| 20260504010000 | -17 | 252 | 11.3 | 11.3 | 0.00 | 0.00 | 0.00 | -999.0 | |
| 20260504005900 | -17 | 237 | 11.3 | 11.3 | 0.00 | 0.00 | 0.00 | -999.0 | |
| 20260504005800 | -17 | 252 | 12.9 | 12.9 | 0.00 | 0.00 | 0.00 | -999.0 | |
| 20260504005700 | -17 | 257 | 9.7 | 9.7 | 0.00 | 0.00 | 0.00 | -999.0 | |
| 20260504005500 | -17 | 256 | 9.7 | 9.7 | 0.00 | 0.00 | 0.00 | -999.0 | |
| 20260504005200 | -17 | 241 | 11.3 | 11.3 | 0.00 | 0.00 | 0.00 | -999.0 | |
| 20260504005100 | -17 | 264 | 8.0 | 8.0 | 0.00 | 0.00 | 0.00 | -999.0 | |
| 20260504005000 | -17 | 253 | 9.7 | 9.7 | 0.00 | 0.00 | 0.00 | -999.0 | |
| 20260504004900 | -17 | 252 | 8.0 | 8.0 | 0.00 | 0.00 | 0.00 | -999.0 | |
| 20260504004800 | -17 | 237 | 6.4 | 6.4 | 0.00 | 0.00 | 0.00 | -999.0 | |
| 20260504004700 | -17 | 239 | 6.4 | 6.4 | 0.00 | 0.00 | 0.00 | -999.0 | |
| 20260504004601 | -17 | 254 | 11.3 | 11.3 | 0.00 | 0.00 | 0.00 | -999.0 | |
| 20260504004500 | -17 | 247 | 9.7 | 9.7 | 0.00 | 0.00 | 0.00 | -999.0 | |
| 20260504004400 | -17 | 248 | 11.3 | 11.3 | 0.00 | 0.00 | 0.00 | -999.0 | |
| 20260504004300 | -17 | 249 | 12.9 | 12.9 | 0.00 | 0.00 | 0.00 | -999.0 | |
| 20260504004100 | -17 | 245 | 12.9 | 12.9 | 0.00 | 0.00 | 0.00 | -999.0 | |
| 20260504004000 | -17 | 269 | 12.9 | 12.9 | 0.00 | 0.00 | 0.00 | -999.0 | |
| 20260504003900 | -17 | 250 | 12.9 | 12.9 | 0.00 | 0.00 | 0.00 | -999.0 | |
| 20260504003601 | -17 | 250 | 12.9 | 12.9 | 0.00 | 0.00 | 0.00 | -999.0 | |
| 20260504003400 | -17 | 250 | 11.3 | 11.3 | 0.00 | 0.00 | 0.00 | -999.0 | |
| 20260504003300 | -17 | 250 | 14.5 | 14.5 | 0.00 | 0.00 | 0.00 | -999.0 | |
| 20260504003200 | -17 | 254 | 16.1 | 16.1 | 0.00 | 0.00 | 0.00 | -999.0 | |
| 20260504003100 | -17 | 256 | 12.9 | 12.9 | 0.00 | 0.00 | 0.00 | -999.0 | |
| 20260504003000 | -17 | 254 | 14.5 | 14.5 | 0.00 | 0.00 | 0.00 | -999.0 | |
| 20260504002900 | -17 | 251 | 17.7 | 17.7 | 0.00 | 0.00 | 0.00 | -999.0 | |
| 20260504002800 | -17 | 245 | 12.9 | 12.9 | 0.00 | 0.00 | 0.00 | -999.0 | |
| 20260504002700 | -17 | 253 | 19.3 | 19.3 | 0.00 | 0.00 | 0.00 | -999.0 | |
| 20260504002601 | -17 | 233 | 12.9 | 12.9 | 0.00 | 0.00 | 0.00 | -999.0 | |
| 20260504002501 | -17 | 255 | 14.5 | 14.5 | 0.00 | 0.00 | 0.00 | -999.0 | |
| 20260504002401 | -17 | 250 | 14.5 | 14.5 | 0.00 | 0.00 | 0.00 | -999.0 | |
| 20260504002300 | -17 | 255 | 14.5 | 14.5 | 0.00 | 0.00 | 0.00 | -999.0 | |
| 20260504002101 | -17 | 240 | 14.5 | 14.5 | 0.00 | 0.00 | 0.00 | -999.0 | |
| 20260504001900 | -17 | 259 | 17.7 | 17.7 | 0.00 | 0.00 | 0.00 | -999.0 | |
| 20260504001800 | -17 | 265 | 14.5 | 14.5 | 0.00 | 0.00 | 0.00 | -999.0 | |
| 20260504001701 | -17 | 248 | 17.7 | 17.7 | 0.00 | 0.00 | 0.00 | -999.0 | |
| 20260504001600 | -17 | 257 | 16.1 | 16.1 | 0.00 | 0.00 | 0.00 | -999.0 | |
| 20260504001500 | -17 | 261 | 14.5 | 14.5 | 0.00 | 0.00 | 0.00 | -999.0 | |
| 20260504001300 | -17 | 259 | 19.3 | 19.3 | 0.00 | 0.00 | 0.00 | -999.0 | |
| 20260504001200 | -17 | 257 | 20.9 | 20.9 | 0.00 | 0.00 | 0.00 | -999.0 | |
| 20260504001100 | -17 | 256 | 20.9 | 20.9 | 0.00 | 0.00 | 0.00 | -999.0 | |
| 20260504001001 | -17 | 247 | 20.9 | 20.9 | 0.00 | 0.00 | 0.00 | -999.0 | |
| 20260504000901 | -17 | 236 | 17.7 | 17.7 | 0.00 | 0.00 | 0.00 | -999.0 | |
| 20260504000800 | -17 | 249 | 17.7 | 17.7 | 0.00 | 0.00 | 0.00 | -999.0 | |
| 20260504000700 | -17 | 236 | 14.5 | 14.5 | 0.00 | 0.00 | 0.00 | -999.0 | |
| 20260504000600 | -17 | 234 | 11.3 | 11.3 | 0.00 | 0.00 | 0.00 | -999.0 | |
| 20260504000500 | -17 | 245 | 9.7 | 9.7 | 0.00 | 0.00 | 0.00 | -999.0 | |
| 20260504000401 | -17 | 224 | 12.9 | 12.9 | 0.00 | 0.00 | 0.00 | -999.0 | |
| 20260504000300 | -17 | 239 | 12.9 | 12.9 | 0.00 | 0.00 | 0.00 | -999.0 | |
| 20260504000200 | -17 | 238 | 11.3 | 11.3 | 0.00 | 0.00 | 0.00 | -999.0 | |
| 20260504000100 | -17 | 224 | 6.4 | 6.4 | 0.00 | 0.00 | 0.00 | -999.0 | |
| 20260503235801 | -17 | 225 | 16.1 | 16.1 | 0.00 | 0.00 | 0.00 | -999.0 | |
| 20260503235601 | -17 | 241 | 14.5 | 14.5 | 0.00 | 0.00 | 0.00 | -999.0 | |
| 20260503235501 | -17 | 231 | 14.5 | 14.5 | 0.00 | 0.00 | 0.00 | -999.0 | |
| 20260503235401 | -17 | 223 | 9.7 | 9.7 | 0.00 | 0.00 | 0.00 | -999.0 | |
| 20260503235301 | -17 | 237 | 12.9 | 12.9 | 0.00 | 0.00 | 0.00 | -999.0 | |
| 20260503235200 | -17 | 229 | 12.9 | 12.9 | 0.00 | 0.00 | 0.00 | -999.0 | |
| 20260503235101 | -17 | 236 | 12.9 | 12.9 | 0.00 | 0.00 | 0.00 | -999.0 | |
| 20260503235001 | -17 | 203 | 6.4 | 6.4 | 0.00 | 0.00 | 0.00 | -999.0 | |
| 20260503234901 | -17 | 217 | 12.9 | 12.9 | 0.00 | 0.00 | 0.00 | -999.0 | |
| 20260503234801 | -17 | 230 | 12.9 | 12.9 | 0.00 | 0.00 | 0.00 | -999.0 | |
| 20260503234701 | -17 | 223 | 12.9 | 12.9 | 0.00 | 0.00 | 0.00 | -999.0 | |
| 20260503234500 | -17 | 233 | 11.3 | 11.3 | 0.00 | 0.00 | 0.00 | -999.0 | |
| 20260503234401 | -17 | 218 | 12.9 | 12.9 | 0.00 | 0.00 | 0.00 | -999.0 | |
| 20260503234200 | -17 | 239 | 11.3 | 11.3 | 0.00 | 0.00 | 0.00 | -999.0 | |
| 20260503234001 | -17 | 235 | 6.4 | 6.4 | 0.00 | 0.00 | 0.00 | -999.0 | |
| 20260503233900 | -17 | 205 | 9.7 | 9.7 | 0.00 | 0.00 | 0.00 | -999.0 | |
| 20260503233801 | -17 | 235 | 12.9 | 12.9 | 0.00 | 0.00 | 0.00 | -999.0 | |
| 20260503233701 | -17 | 226 | 9.7 | 9.7 | 0.00 | 0.00 | 0.00 | -999.0 | |
| 20260503233601 | -17 | 229 | 12.9 | 12.9 | 0.00 | 0.00 | 0.00 | -999.0 | |
| 20260503233501 | -17 | 229 | 9.7 | 9.7 | 0.00 | 0.00 | 0.00 | -999.0 | |
| 20260503233402 | -17 | 228 | 12.9 | 12.9 | 0.00 | 0.00 | 0.00 | -999.0 | |
| 20260503233301 | -17 | 244 | 14.5 | 14.5 | 0.00 | 0.00 | 0.00 | -999.0 | |
| 20260503233200 | -17 | 237 | 14.5 | 14.5 | 0.00 | 0.00 | 0.00 | -999.0 | |
| 20260503232900 | -17 | 236 | 12.9 | 12.9 | 0.00 | 0.00 | 0.00 | -999.0 | |
| 20260503232700 | -17 | 249 | 9.7 | 9.7 | 0.00 | 0.00 | 0.00 | -999.0 | |
| 20260503232601 | -17 | 240 | 4.8 | 4.8 | 0.00 | 0.00 | 0.00 | -999.0 | |
| 20260503232500 | -17 | 243 | 6.4 | 6.4 | 0.00 | 0.00 | 0.00 | -999.0 | |
| 20260503232400 | -17 | 224 | 8.0 | 8.0 | 0.00 | 0.00 | 0.00 | -999.0 | |
| 20260503232300 | -17 | 223 | 11.3 | 11.3 | 0.00 | 0.00 | 0.00 | -999.0 | |
| 20260503232200 | -17 | 196 | 8.0 | 8.0 | 0.00 | 0.00 | 0.00 | -999.0 | |
| 20260503232101 | -17 | 200 | 11.3 | 11.3 | 0.00 | 0.00 | 0.00 | -999.0 | |
| 20260503232000 | -17 | 217 | 9.7 | 9.7 | 0.00 | 0.00 | 0.00 | -999.0 | |
| 20260503231900 | -17 | 211 | 14.5 | 14.5 | 0.00 | 0.00 | 0.00 | -999.0 | |
| 20260503231701 | -17 | 235 | 14.5 | 14.5 | 0.00 | 0.00 | 0.00 | -999.0 | |
| 20260503231601 | -17 | 228 | 17.7 | 17.7 | 0.00 | 0.00 | 0.00 | -999.0 | |
| 20260503231501 | -17 | 212 | 9.7 | 9.7 | 0.00 | 0.00 | 0.00 | -999.0 | |
| 20260503231400 | -17 | 187 | 14.5 | 14.5 | 0.00 | 0.00 | 0.00 | -999.0 | |
| 20260503231300 | -17 | 219 | 11.3 | 11.3 | 0.00 | 0.00 | 0.00 | -999.0 | |
| 20260503231200 | -17 | 223 | 8.0 | 8.0 | 0.00 | 0.00 | 0.00 | -999.0 | |
| 20260503231000 | -17 | 212 | 8.0 | 8.0 | 0.00 | 0.00 | 0.00 | -999.0 | |
| 20260503230900 | -17 | 192 | 12.9 | 12.9 | 0.00 | 0.00 | 0.00 | -999.0 | |
| 20260503230801 | -17 | 233 | 14.5 | 14.5 | 0.00 | 0.00 | 0.00 | -999.0 | |
| 20260503230700 | -17 | 229 | 16.1 | 16.1 | 0.00 | 0.00 | 0.00 | -999.0 | |
| 20260503230600 | -17 | 238 | 11.3 | 11.3 | 0.00 | 0.00 | 0.00 | -999.0 | |
| 20260503230501 | -17 | 225 | 4.8 | 4.8 | 0.00 | 0.00 | 0.00 | -999.0 | |
| 20260503230401 | -17 | 189 | 6.4 | 6.4 | 0.00 | 0.00 | 0.00 | -999.0 | |
| 20260503230201 | -17 | 212 | 14.5 | 14.5 | 0.00 | 0.00 | 0.00 | -999.0 | |
| 20260503230100 | -17 | 211 | 11.3 | 11.3 | 0.00 | 0.00 | 0.00 | -999.0 | |
| 20260503225901 | -17 | 222 | 14.5 | 14.5 | 0.00 | 0.00 | 0.00 | -999.0 | |
| 20260503225801 | -17 | 236 | 9.7 | 9.7 | 0.00 | 0.00 | 0.00 | -999.0 | |
| 20260503225601 | -17 | 232 | 11.3 | 11.3 | 0.00 | 0.00 | 0.00 | -999.0 | |
| 20260503225500 | -17 | 244 | 17.7 | 17.7 | 0.00 | 0.00 | 0.00 | -999.0 | |
| 20260503225300 | -17 | 225 | 12.9 | 12.9 | 0.00 | 0.00 | 0.00 | -999.0 | |
| 20260503225201 | -17 | 233 | 12.9 | 12.9 | 0.00 | 0.00 | 0.00 | -999.0 | |
| 20260503225101 | -17 | 203 | 12.9 | 12.9 | 0.00 | 0.00 | 0.00 | -999.0 | |
| 20260503224301 | -17 | 235 | 17.7 | 17.7 | 0.00 | 0.00 | 0.00 | -999.0 | |
| 20260503224201 | -17 | 224 | 19.3 | 19.3 | 0.00 | 0.00 | 0.00 | -999.0 | |
| 20260503224100 | -17 | 221 | 11.3 | 11.3 | 0.00 | 0.00 | 0.00 | -999.0 | |
| 20260503224000 | -17 | 225 | 16.1 | 16.1 | 0.00 | 0.00 | 0.00 | -999.0 | |
| 20260503223901 | -17 | 219 | 12.9 | 12.9 | 0.00 | 0.00 | 0.00 | -999.0 | |
| 20260503223701 | -17 | 224 | 9.7 | 9.7 | 0.00 | 0.00 | 0.00 | -999.0 | |
| 20260503223301 | -17 | 178 | 12.9 | 12.9 | 0.00 | 0.00 | 0.00 | -999.0 | |
| 20260503223201 | -17 | 205 | 11.3 | 11.3 | 0.00 | 0.00 | 0.00 | -999.0 | |
| 20260503223101 | -17 | 157 | 9.7 | 9.7 | 0.00 | 0.00 | 0.00 | -999.0 | |
| 20260503223001 | -17 | 238 | 6.4 | 6.4 | 0.00 | 0.00 | 0.00 | -999.0 | |
| 20260503222900 | -17 | 203 | 6.4 | 6.4 | 0.00 | 0.00 | 0.00 | -999.0 | |
| 20260503222801 | -17 | 221 | 14.5 | 14.5 | 0.00 | 0.00 | 0.00 | -999.0 | |
| 20260503222701 | -17 | 215 | 14.5 | 14.5 | 0.00 | 0.00 | 0.00 | -999.0 | |
| 20260503222500 | -17 | 197 | 12.9 | 12.9 | 0.00 | 0.00 | 0.00 | -999.0 | |
| 20260503222400 | -17 | 216 | 12.9 | 12.9 | 0.00 | 0.00 | 0.00 | -999.0 | |
| 20260503222300 | -17 | 224 | 14.5 | 14.5 | 0.00 | 0.00 | 0.00 | -999.0 | |
| 20260503222200 | -17 | 205 | 14.5 | 14.5 | 0.00 | 0.00 | 0.00 | -999.0 | |
| 20260503222101 | -17 | 228 | 9.7 | 9.7 | 0.00 | 0.00 | 0.00 | -999.0 | |
| 20260503221901 | -17 | 212 | 11.3 | 11.3 | 0.00 | 0.00 | 0.00 | -999.0 | |
| 20260503221800 | -17 | 223 | 16.1 | 16.1 | 0.00 | 0.00 | 0.00 | -999.0 | |
| 20260503221701 | -17 | 236 | 11.3 | 11.3 | 0.00 | 0.00 | 0.00 | -999.0 | |
| 20260503221601 | -17 | 219 | 9.7 | 9.7 | 0.00 | 0.00 | 0.00 | -999.0 | |
| 20260503221500 | -17 | 231 | 11.3 | 11.3 | 0.00 | 0.00 | 0.00 | -999.0 | |
| 20260503221300 | -17 | 204 | 9.7 | 9.7 | 0.00 | 0.00 | 0.00 | -999.0 | |
| 20260503221200 | -17 | 204 | 11.3 | 11.3 | 0.00 | 0.00 | 0.00 | -999.0 | |
| 20260503221100 | -17 | 214 | 11.3 | 11.3 | 0.00 | 0.00 | 0.00 | -999.0 | |
| 20260503220900 | -17 | 217 | 8.0 | 8.0 | 0.00 | 0.00 | 0.00 | -999.0 | |
| 20260503220801 | -17 | 196 | 4.8 | 4.8 | 0.00 | 0.00 | 0.00 | -999.0 | |
| 20260503220701 | -17 | 172 | 16.1 | 16.1 | 0.00 | 0.00 | 0.00 | -999.0 | |
| 20260503220601 | -17 | 160 | 11.3 | 11.3 | 0.00 | 0.00 | 0.00 | -999.0 | |
| 20260503220500 | -17 | 173 | 11.3 | 11.3 | 0.00 | 0.00 | 0.00 | -999.0 | |
| 20260503220300 | -17 | 231 | 12.9 | 12.9 | 0.00 | 0.00 | 0.00 | -999.0 | |
| 20260503220101 | -17 | 240 | 9.7 | 9.7 | 0.00 | 0.00 | 0.00 | -999.0 | |
| 20260503220001 | -17 | 210 | 12.9 | 12.9 | 0.00 | 0.00 | 0.00 | -999.0 | |
| 20260503215900 | -17 | 230 | 17.7 | 17.7 | 0.00 | 0.00 | 0.00 | -999.0 | |
| 20260503215600 | -17 | 205 | 8.0 | 8.0 | 0.00 | 0.00 | 0.00 | -999.0 | |
| 20260503215500 | -17 | 155 | 11.3 | 11.3 | 0.00 | 0.00 | 0.00 | -999.0 | |
| 20260503215300 | -17 | 148 | 14.5 | 14.5 | 0.00 | 0.00 | 0.00 | -999.0 | |
| 20260503215100 | -17 | 205 | 8.0 | 8.0 | 0.00 | 0.00 | 0.00 | -999.0 | |
| 20260503215001 | -17 | 230 | 9.7 | 9.7 | 0.00 | 0.00 | 0.00 | -999.0 | |
| 20260503214900 | -17 | 209 | 6.4 | 6.4 | 0.00 | 0.00 | 0.00 | -999.0 | |
| 20260503214700 | -17 | 210 | 8.0 | 8.0 | 0.00 | 0.00 | 0.00 | -999.0 | |
| 20260503214500 | -17 | 226 | 14.5 | 14.5 | 0.00 | 0.00 | 0.00 | -999.0 | |
| 20260503214400 | -17 | 239 | 14.5 | 14.5 | 0.00 | 0.00 | 0.00 | -999.0 | |
| 20260503214300 | -17 | 230 | 14.5 | 14.5 | 0.00 | 0.00 | 0.00 | -999.0 | |
| 20260503214201 | -17 | 233 | 14.5 | 14.5 | 0.00 | 0.00 | 0.00 | -999.0 | |
| 20260503214101 | -17 | 211 | 8.0 | 8.0 | 0.00 | 0.00 | 0.00 | -999.0 | |
| 20260503214001 | -17 | 210 | 17.7 | 17.7 | 0.00 | 0.00 | 0.00 | -999.0 | |
| 20260503213901 | -17 | 217 | 14.5 | 14.5 | 0.00 | 0.00 | 0.00 | -999.0 | |
| 20260503213801 | -17 | 224 | 12.9 | 12.9 | 0.00 | 0.00 | 0.00 | -999.0 | |
| 20260503213700 | -17 | 217 | 11.3 | 11.3 | 0.00 | 0.00 | 0.00 | -999.0 | |
| 20260503213601 | -17 | 229 | 9.7 | 9.7 | 0.00 | 0.00 | 0.00 | -999.0 | |
| 20260503213501 | -17 | 234 | 14.5 | 14.5 | 0.00 | 0.00 | 0.00 | -999.0 | |
| 20260503213400 | -17 | 235 | 19.3 | 19.3 | 0.00 | 0.00 | 0.00 | -999.0 | |
| 20260503213300 | -17 | 226 | 14.5 | 14.5 | 0.00 | 0.00 | 0.00 | -999.0 | |
| 20260503213101 | -17 | 216 | 17.7 | 17.7 | 0.00 | 0.00 | 0.00 | -999.0 | |
| 20260503213000 | -17 | 244 | 9.7 | 9.7 | 0.00 | 0.00 | 0.00 | -999.0 | |
| 20260503212900 | -17 | 228 | 19.3 | 19.3 | 0.00 | 0.00 | 0.00 | -999.0 | |
| 20260503212701 | -17 | 219 | 16.1 | 16.1 | 0.00 | 0.00 | 0.00 | -999.0 | |
| 20260503212601 | -17 | 225 | 20.9 | 20.9 | 0.00 | 0.00 | 0.00 | -999.0 | |
| 20260503212500 | -17 | 231 | 17.7 | 17.7 | 0.00 | 0.00 | 0.00 | -999.0 | |
| 20260503212400 | -17 | 221 | 17.7 | 17.7 | 0.00 | 0.00 | 0.00 | -999.0 | |
| 20260503212300 | -17 | 210 | 16.1 | 16.1 | 0.00 | 0.00 | 0.00 | -999.0 | |
| 20260503212200 | -17 | 226 | 17.7 | 17.7 | 0.00 | 0.00 | 0.00 | -999.0 | |
| 20260503212000 | -17 | 221 | 19.3 | 19.3 | 0.00 | 0.00 | 0.00 | -999.0 | |
| 20260503211900 | -17 | 236 | 17.7 | 17.7 | 0.00 | 0.00 | 0.00 | -999.0 | |
| 20260503211800 | -17 | 226 | 8.0 | 8.0 | 0.00 | 0.00 | 0.00 | -999.0 | |
| 20260503211701 | -17 | 231 | 16.1 | 16.1 | 0.00 | 0.00 | 0.00 | -999.0 | |
| 20260503211600 | -17 | 216 | 16.1 | 16.1 | 0.00 | 0.00 | 0.00 | -999.0 | |
| 20260503211400 | -17 | 225 | 6.4 | 6.4 | 0.00 | 0.00 | 0.00 | -999.0 | |
| 20260503211200 | -17 | 227 | 9.7 | 9.7 | 0.00 | 0.00 | 0.00 | -999.0 | |
| 20260503211100 | -17 | 219 | 9.7 | 9.7 | 0.00 | 0.00 | 0.00 | -999.0 | |
| 20260503211000 | -17 | 171 | 11.3 | 11.3 | 0.00 | 0.00 | 0.00 | -999.0 | |
| 20260503210900 | -17 | 202 | 14.5 | 14.5 | 0.00 | 0.00 | 0.00 | -999.0 | |
| 20260503210800 | -17 | 225 | 9.7 | 9.7 | 0.00 | 0.00 | 0.00 | -999.0 | |
| 20260503210700 | -17 | 240 | 9.7 | 9.7 | 0.00 | 0.00 | 0.00 | -999.0 | |
| 20260503210600 | -17 | 222 | 11.3 | 11.3 | 0.00 | 0.00 | 0.00 | -999.0 | |
| 20260503210500 | -17 | 212 | 16.1 | 16.1 | 0.00 | 0.00 | 0.00 | -999.0 | |
| 20260503210400 | -17 | 241 | 12.9 | 12.9 | 0.00 | 0.00 | 0.00 | -999.0 | |
| 20260503210300 | -17 | 210 | 12.9 | 12.9 | 0.00 | 0.00 | 0.00 | -999.0 | |
| 20260503210200 | -17 | 230 | 16.1 | 16.1 | 0.00 | 0.00 | 0.00 | -999.0 | |
| 20260503210100 | -17 | 228 | 12.9 | 12.9 | 0.00 | 0.00 | 0.00 | -999.0 | |
| 20260503210000 | -17 | 235 | 12.9 | 12.9 | 0.00 | 0.00 | 0.00 | -999.0 | |
| 20260503205900 | -17 | 207 | 16.1 | 16.1 | 0.00 | 0.00 | 0.00 | -999.0 | |
| 20260503205701 | -17 | 216 | 17.7 | 17.7 | 0.00 | 0.00 | 0.00 | -999.0 | |
| 20260503205400 | -17 | 226 | 6.4 | 6.4 | 0.00 | 0.00 | 0.00 | -999.0 | |
| 20260503205300 | -17 | 193 | 8.0 | 8.0 | 0.00 | 0.00 | 0.00 | -999.0 | |
| 20260503205200 | -17 | 226 | 17.7 | 17.7 | 0.00 | 0.00 | 0.00 | -999.0 | |
| 20260503205100 | -17 | 184 | 8.0 | 8.0 | 0.00 | 0.00 | 0.00 | -999.0 | |
| 20260503205001 | -17 | 200 | 8.0 | 8.0 | 0.00 | 0.00 | 0.00 | -999.0 | |
| 20260503204900 | -17 | 191 | 14.5 | 14.5 | 0.00 | 0.00 | 0.00 | -999.0 | |
| 20260503204800 | -17 | 191 | 8.0 | 8.0 | 0.00 | 0.00 | 0.00 | -999.0 | |
| 20260503204700 | -17 | 195 | 14.5 | 14.5 | 0.00 | 0.00 | 0.00 | -999.0 | |
| 20260503204601 | -17 | 200 | 8.0 | 8.0 | 0.00 | 0.00 | 0.00 | -999.0 | |
| 20260503204501 | -17 | 200 | 8.0 | 8.0 | 0.00 | 0.00 | 0.00 | -999.0 | |
| 20260503204400 | -17 | 215 | 8.0 | 8.0 | 0.00 | 0.00 | 0.00 | -999.0 | |
| 20260503204301 | -17 | 237 | 4.8 | 4.8 | 0.00 | 0.00 | 0.00 | -999.0 | |
| 20260503204201 | -17 | 230 | 6.4 | 6.4 | 0.00 | 0.00 | 0.00 | -999.0 | |
| 20260503204100 | -17 | 194 | 6.4 | 6.4 | 0.00 | 0.00 | 0.00 | -999.0 | |
| 20260503204000 | -17 | 184 | 8.0 | 8.0 | 0.00 | 0.00 | 0.00 | -999.0 | |
| 20260503203800 | -17 | 197 | 9.7 | 9.7 | 0.00 | 0.00 | 0.00 | -999.0 | |
| 20260503203701 | -17 | 199 | 8.0 | 8.0 | 0.00 | 0.00 | 0.00 | -999.0 | |
| 20260503203601 | -17 | 200 | 9.7 | 9.7 | 0.00 | 0.00 | 0.00 | -999.0 | |
| 20260503203501 | -17 | 172 | 6.4 | 6.4 | 0.00 | 0.00 | 0.00 | -999.0 | |
| 20260503203400 | -17 | 193 | 9.7 | 9.7 | 0.00 | 0.00 | 0.00 | -999.0 | |
| 20260503203200 | -17 | 202 | 9.7 | 9.7 | 0.00 | 0.00 | 0.00 | -999.0 | |
| 20260503203001 | -17 | 193 | 9.7 | 9.7 | 0.00 | 0.00 | 0.00 | -999.0 | |
| 20260503202900 | -17 | 200 | 12.9 | 12.9 | 0.00 | 0.00 | 0.00 | -999.0 | |
| 20260503202801 | -17 | 236 | 16.1 | 16.1 | 0.00 | 0.00 | 0.00 | -999.0 | |
| 20260503202700 | -17 | 229 | 16.1 | 16.1 | 0.00 | 0.00 | 0.00 | -999.0 | |
| 20260503202600 | -17 | 231 | 14.5 | 14.5 | 0.00 | 0.00 | 0.00 | -999.0 | |
| 20260503202501 | -17 | 229 | 16.1 | 16.1 | 0.00 | 0.00 | 0.00 | -999.0 | |
| 20260503202400 | -17 | 259 | 9.7 | 9.7 | 0.00 | 0.00 | 0.00 | -999.0 | |
| 20260503202300 | -17 | 241 | 17.7 | 17.7 | 0.00 | 0.00 | 0.00 | -999.0 | |
| 20260503202200 | -17 | 252 | 11.3 | 11.3 | 0.00 | 0.00 | 0.00 | -999.0 | |
| 20260503202100 | -17 | 207 | 6.4 | 6.4 | 0.00 | 0.00 | 0.00 | -999.0 | |
| 20260503202000 | -17 | 235 | 3.2 | 3.2 | 0.00 | 0.00 | 0.00 | -999.0 | |
| 20260503201900 | -17 | 216 | 8.0 | 8.0 | 0.00 | 0.00 | 0.00 | -999.0 | |
| 20260503201700 | -17 | 195 | 11.3 | 11.3 | 0.00 | 0.00 | 0.00 | -999.0 | |
| 20260503201601 | -17 | 214 | 14.5 | 14.5 | 0.00 | 0.00 | 0.00 | -999.0 | |
| 20260503201500 | -17 | 196 | 16.1 | 16.1 | 0.00 | 0.00 | 0.00 | -999.0 | |
| 20260503201400 | -17 | 221 | 16.1 | 16.1 | 0.00 | 0.00 | 0.00 | -999.0 | |
| 20260503201300 | -17 | 239 | 11.3 | 11.3 | 0.00 | 0.00 | 0.00 | -999.0 | |
| 20260503201100 | -17 | 238 | 22.5 | 22.5 | 0.00 | 0.00 | 0.00 | -999.0 | |
| 20260503201000 | -17 | 233 | 20.9 | 20.9 | 0.00 | 0.00 | 0.00 | -999.0 | |
| 20260503200900 | -17 | 259 | 17.7 | 17.7 | 0.00 | 0.00 | 0.00 | -999.0 | |
| 20260503200800 | -17 | 262 | 6.4 | 6.4 | 0.00 | 0.00 | 0.00 | -999.0 | |
| 20260503200401 | -17 | 227 | 14.5 | 14.5 | 0.00 | 0.00 | 0.00 | -999.0 | |
| 20260503200200 | -17 | 231 | 17.7 | 17.7 | 0.00 | 0.00 | 0.00 | -999.0 | |
| 20260503200100 | -17 | 243 | 19.3 | 19.3 | 0.00 | 0.00 | 0.00 | -999.0 | |
| 20260503200000 | -17 | 211 | 11.3 | 11.3 | 0.00 | 0.00 | 0.00 | -999.0 | |
| 20260503195900 | -17 | 234 | 11.3 | 11.3 | 0.00 | 0.00 | 0.00 | -999.0 | |
| 20260503195800 | -17 | 238 | 11.3 | 11.3 | 0.00 | 0.00 | 0.00 | -999.0 | |
| 20260503195700 | -17 | 229 | 11.3 | 11.3 | 0.00 | 0.00 | 0.00 | -999.0 | |
| 20260503195600 | -17 | 226 | 16.1 | 16.1 | 0.00 | 0.00 | 0.00 | -999.0 | |
| 20260503195500 | -17 | 240 | 19.3 | 19.3 | 0.00 | 0.00 | 0.00 | -999.0 | |
| 20260503195400 | -17 | 245 | 11.3 | 11.3 | 0.00 | 0.00 | 0.00 | -999.0 | |
| 20260503195300 | -17 | 226 | 9.7 | 9.7 | 0.00 | 0.00 | 0.00 | -999.0 | |
| 20260503195201 | -17 | 231 | 6.4 | 6.4 | 0.00 | 0.00 | 0.00 | -999.0 | |
| 20260503195100 | -17 | 234 | 8.0 | 8.0 | 0.00 | 0.00 | 0.00 | -999.0 | |
| 20260503195000 | -17 | 236 | 8.0 | 8.0 | 0.00 | 0.00 | 0.00 | -999.0 | |
| 20260503194900 | -17 | 247 | 14.5 | 14.5 | 0.00 | 0.00 | 0.00 | -999.0 | |
| 20260503194701 | -17 | 237 | 11.3 | 11.3 | 0.00 | 0.00 | 0.00 | -999.0 | |
| 20260503194601 | -17 | 259 | 9.7 | 9.7 | 0.00 | 0.00 | 0.00 | -999.0 | |
| 20260503194500 | -17 | 231 | 17.7 | 17.7 | 0.00 | 0.00 | 0.00 | -999.0 | |
| 20260503194400 | -17 | 227 | 6.4 | 6.4 | 0.00 | 0.00 | 0.00 | -999.0 | |
| 20260503194300 | -17 | 226 | 9.7 | 9.7 | 0.00 | 0.00 | 0.00 | -999.0 | |
| 20260503194201 | -17 | 266 | 6.4 | 6.4 | 0.00 | 0.00 | 0.00 | -999.0 | |
| 20260503194101 | -17 | 245 | 4.8 | 4.8 | 0.00 | 0.00 | 0.00 | -999.0 | |
| 20260503194000 | -17 | 304 | 1.6 | 1.6 | 0.00 | 0.00 | 0.00 | -999.0 | |
| 20260503193901 | -17 | 338 | 1.6 | 1.6 | 0.00 | 0.00 | 0.00 | -999.0 | |
| 20260503193800 | -17 | 272 | 4.8 | 4.8 | 0.00 | 0.00 | 0.00 | -999.0 | |
| 20260503193700 | -17 | 276 | 8.0 | 8.0 | 0.00 | 0.00 | 0.00 | -999.0 | |
| 20260503193601 | -17 | 269 | 14.5 | 14.5 | 0.00 | 0.00 | 0.00 | -999.0 | |
| 20260503193500 | -17 | 306 | 20.9 | 20.9 | 0.00 | 0.00 | 0.00 | -999.0 | |
| 20260503193401 | -17 | 326 | 17.7 | 17.7 | 0.00 | 0.00 | 0.00 | -999.0 | |
| 20260503193300 | -17 | 349 | 11.3 | 11.3 | 0.00 | 0.00 | 0.00 | -999.0 | |
| 20260503193200 | -17 | 290 | 6.4 | 6.4 | 0.00 | 0.00 | 0.00 | -999.0 | |
| 20260503193101 | -17 | 87 | 1.6 | 1.6 | 0.00 | 0.00 | 0.00 | -999.0 | |
| 20260503193001 | -17 | 41 | 3.2 | 3.2 | 0.00 | 0.00 | 0.00 | -999.0 | |
| 20260503192800 | -17 | 10 | 11.3 | 11.3 | 0.00 | 0.00 | 0.00 | -999.0 | |
| 20260503192700 | -17 | 15 | 8.0 | 8.0 | 0.00 | 0.00 | 0.00 | -999.0 | |
| 20260503192500 | -17 | 356 | 8.0 | 8.0 | 0.00 | 0.00 | 0.00 | -999.0 | |
| 20260503192401 | -17 | 13 | 11.3 | 11.3 | 0.00 | 0.00 | 0.00 | -999.0 | |
| 20260503192301 | -17 | 34 | 1.6 | 1.6 | 0.00 | 0.00 | 0.00 | -999.0 | |
| 20260503192101 | -17 | 58 | 1.6 | 1.6 | 0.00 | 0.00 | 0.00 | -999.0 | |
| 20260503191901 | -17 | 46 | 11.3 | 11.3 | 0.00 | 0.00 | 0.00 | -999.0 | |
| 20260503191800 | -17 | 24 | 6.4 | 6.4 | 0.00 | 0.00 | 0.00 | -999.0 | |
| 20260503191701 | -17 | 25 | 4.8 | 4.8 | 0.00 | 0.00 | 0.00 | -999.0 | |
| 20260503191601 | -17 | 24 | 6.4 | 6.4 | 0.00 | 0.00 | 0.00 | -999.0 | |
| 20260503191501 | -17 | 9 | 4.8 | 4.8 | 0.00 | 0.00 | 0.00 | -999.0 | |
| 20260503191401 | -17 | 26 | 4.8 | 4.8 | 0.00 | 0.00 | 0.00 | -999.0 | |
| 20260503191301 | -17 | 18 | 9.7 | 9.7 | 0.00 | 0.00 | 0.00 | -999.0 | |
| 20260503191200 | -17 | 19 | 6.4 | 6.4 | 0.00 | 0.00 | 0.00 | -999.0 | |
| 20260503191001 | -17 | 342 | 6.4 | 6.4 | 0.00 | 0.00 | 0.00 | -999.0 | |
| 20260503190900 | -17 | 10 | 11.3 | 11.3 | 0.00 | 0.00 | 0.00 | -999.0 | |
| 20260503190601 | -17 | 23 | 11.3 | 11.3 | 0.00 | 0.00 | 0.00 | -999.0 | |
| 20260503190500 | -17 | 23 | 11.3 | 11.3 | 0.00 | 0.00 | 0.00 | -999.0 | |
| 20260503190301 | -17 | 356 | 16.1 | 16.1 | 0.00 | 0.00 | 0.00 | -999.0 | |
| 20260503190201 | -17 | 11 | 19.3 | 19.3 | 0.00 | 0.00 | 0.00 | -999.0 | |
| 20260503190001 | -17 | 9 | 22.5 | 22.5 | 0.00 | 0.00 | 0.00 | -999.0 | |
| 20260503185901 | -17 | 12 | 12.9 | 12.9 | 0.00 | 0.00 | 0.00 | -999.0 | |
| 20260503185801 | -17 | 333 | 8.0 | 8.0 | 0.00 | 0.00 | 0.00 | -999.0 | |
| 20260503185701 | -17 | 1 | 8.0 | 8.0 | 0.00 | 0.00 | 0.00 | -999.0 | |
| 20260503185601 | -17 | 321 | 6.4 | 6.4 | 0.00 | 0.00 | 0.00 | -999.0 | |
| 20260503184801 | -17 | 72 | 1.6 | 1.6 | 0.00 | 0.00 | 0.00 | -999.0 | |
| 20260503184701 | -17 | 68 | 3.2 | 3.2 | 0.00 | 0.00 | 0.00 | -999.0 | |
| 20260503184601 | -17 | 76 | 1.6 | 1.6 | 0.00 | 0.00 | 0.00 | -999.0 | |
| 20260503184501 | -17 | 62 | 4.8 | 4.8 | 0.00 | 0.00 | 0.00 | -999.0 | |
| 20260503184301 | -17 | 16 | 1.6 | 1.6 | 0.00 | 0.00 | 0.00 | -999.0 | |
| 20260503184200 | -17 | 16 | 8.0 | 8.0 | 0.00 | 0.00 | 0.00 | -999.0 | |
| 20260503184100 | -17 | 15 | 6.4 | 6.4 | 0.00 | 0.00 | 0.00 | -999.0 | |
| 20260503183801 | -17 | 8 | 6.4 | 6.4 | 0.00 | 0.00 | 0.00 | -999.0 | |
| 20260503183701 | -17 | 18 | 11.3 | 11.3 | 0.00 | 0.00 | 0.00 | -999.0 | |
| 20260503183601 | -17 | 30 | 4.8 | 4.8 | 0.00 | 0.00 | 0.00 | -999.0 | |
| 20260503183501 | -17 | 15 | 9.7 | 9.7 | 0.00 | 0.00 | 0.00 | -999.0 | |
| 20260503183401 | -17 | 24 | 11.3 | 11.3 | 0.00 | 0.00 | 0.00 | -999.0 | |
| 20260503183300 | -17 | 351 | 8.0 | 8.0 | 0.00 | 0.00 | 0.00 | -999.0 | |
| 20260503183201 | -17 | 352 | 14.5 | 14.5 | 0.00 | 0.00 | 0.00 | -999.0 | |
| 20260503183100 | -17 | 15 | 11.3 | 11.3 | 0.00 | 0.00 | 0.00 | -999.0 | |
| 20260503183001 | -17 | 20 | 16.1 | 16.1 | 0.00 | 0.00 | 0.00 | -999.0 | |
| 20260503182901 | -17 | 354 | 8.0 | 8.0 | 0.00 | 0.00 | 0.00 | -999.0 | |
| 20260503182601 | -17 | 323 | 0.0 | 0.0 | 0.00 | 0.00 | 0.00 | -999.0 | |
| 20260503182500 | -17 | 331 | 8.0 | 8.0 | 0.00 | 0.00 | 0.00 | -999.0 | |
| 20260503182400 | -17 | 319 | 8.0 | 8.0 | 0.00 | 0.00 | 0.00 | -999.0 | |
| 20260503182300 | -17 | 314 | 16.1 | 16.1 | 0.00 | 0.00 | 0.00 | -999.0 | |
| 20260503182201 | -17 | 321 | 14.5 | 14.5 | 0.00 | 0.00 | 0.00 | -999.0 | |
| 20260503182101 | -17 | 76 | 0.0 | 0.0 | 0.00 | 0.00 | 0.00 | -999.0 | |
| 20260503182001 | -17 | 77 | 0.0 | 0.0 | 0.00 | 0.00 | 0.00 | -999.0 | |
| 20260503181903 | -17 | 358 | 3.2 | 3.2 | 0.00 | 0.00 | 0.00 | -999.0 | |
| 20260503181801 | -17 | 39 | 4.8 | 4.8 | 0.00 | 0.00 | 0.00 | -999.0 | |
| 20260503181701 | -17 | 46 | 1.6 | 1.6 | 0.00 | 0.00 | 0.00 | -999.0 | |
| 20260503181501 | -17 | 1 | 6.4 | 6.4 | 0.00 | 0.00 | 0.00 | -999.0 | |
| 20260503181401 | -17 | 25 | 3.2 | 3.2 | 0.00 | 0.00 | 0.00 | -999.0 | |
| 20260503181301 | -17 | 334 | 3.2 | 3.2 | 0.00 | 0.00 | 0.00 | -999.0 | |
| 20260503181200 | -17 | 345 | 1.6 | 1.6 | 0.00 | 0.00 | 0.00 | -999.0 | |
| 20260503181101 | -17 | 34 | 3.2 | 3.2 | 0.00 | 0.00 | 0.00 | -999.0 | |
| 20260503181000 | -17 | 18 | 9.7 | 9.7 | 0.00 | 0.00 | 0.00 | -999.0 | |
| 20260503180900 | -17 | 20 | 12.9 | 12.9 | 0.00 | 0.00 | 0.00 | -999.0 | |
| 20260503180701 | -17 | 13 | 3.2 | 3.2 | 0.00 | 0.00 | 0.00 | -999.0 | |
| 20260503180600 | -17 | 15 | 9.7 | 9.7 | 0.00 | 0.00 | 0.00 | -999.0 | |
| 20260503180501 | -17 | 341 | 6.4 | 6.4 | 0.00 | 0.00 | 0.00 | -999.0 | |
| 20260503180401 | -17 | 80 | 1.6 | 1.6 | 0.00 | 0.00 | 0.00 | -999.0 | |
| 20260503180300 | -17 | 70 | 4.8 | 4.8 | 0.00 | 0.00 | 0.00 | -999.0 | |
| 20260503180001 | -17 | 52 | 9.7 | 9.7 | 0.00 | 0.00 | 0.00 | -999.0 | |
| 20260503175900 | -17 | 49 | 3.2 | 3.2 | 0.00 | 0.00 | 0.00 | -999.0 | |
| 20260503175701 | -17 | 41 | 3.2 | 3.2 | 0.00 | 0.00 | 0.00 | -999.0 | |
| 20260503175600 | -17 | 21 | 9.7 | 9.7 | 0.00 | 0.00 | 0.00 | -999.0 | |
| 20260503175400 | -17 | 15 | 12.9 | 12.9 | 0.00 | 0.00 | 0.00 | -999.0 | |
| 20260503175300 | -17 | 21 | 17.7 | 17.7 | 0.00 | 0.00 | 0.00 | -999.0 | |
| 20260503175200 | -17 | 20 | 20.9 | 20.9 | 0.00 | 0.00 | 0.00 | -999.0 | |
| 20260503175101 | -17 | 19 | 12.9 | 12.9 | 0.00 | 0.00 | 0.00 | -999.0 | |
| 20260503175001 | -17 | 11 | 12.9 | 12.9 | 0.00 | 0.00 | 0.00 | -999.0 | |
| 20260503174902 | -17 | 1 | 9.7 | 9.7 | 0.00 | 0.00 | 0.00 | -999.0 | |
| 20260503174601 | -17 | 39 | 8.0 | 8.0 | 0.00 | 0.00 | 0.00 | -999.0 | |
| 20260503174501 | -17 | 51 | 9.7 | 9.7 | 0.00 | 0.00 | 0.00 | -999.0 | |
| 20260503174401 | -17 | 23 | 20.9 | 20.9 | 0.00 | 0.00 | 0.00 | -999.0 | |
| 20260503174201 | -17 | 27 | 19.3 | 19.3 | 0.00 | 0.00 | 0.00 | -999.0 | |
| 20260503174100 | -17 | 26 | 16.1 | 16.1 | 0.00 | 0.00 | 0.00 | -999.0 | |
| 20260503174001 | -17 | 8 | 17.7 | 17.7 | 0.00 | 0.00 | 0.00 | -999.0 | |
| 20260503173901 | -17 | 26 | 16.1 | 16.1 | 0.00 | 0.00 | 0.00 | -999.0 | |
| 20260503173601 | -17 | 10 | 8.0 | 8.0 | 0.00 | 0.00 | 0.00 | -999.0 | |
| 20260503173501 | -17 | 18 | 8.0 | 8.0 | 0.00 | 0.00 | 0.00 | -999.0 | |
| 20260503173301 | -17 | 22 | 12.9 | 12.9 | 0.00 | 0.00 | 0.00 | -999.0 | |
| 20260503173201 | -17 | 333 | 12.9 | 12.9 | 0.00 | 0.00 | 0.00 | -999.0 | |
| 20260503173101 | -17 | 348 | 12.9 | 12.9 | 0.00 | 0.00 | 0.00 | -999.0 | |
| 20260503173000 | -17 | 13 | 14.5 | 14.5 | 0.00 | 0.00 | 0.00 | -999.0 | |
| 20260503172800 | -17 | 13 | 17.7 | 17.7 | 0.00 | 0.00 | 0.00 | -999.0 | |
| 20260503172700 | -17 | 11 | 8.0 | 8.0 | 0.00 | 0.00 | 0.00 | -999.0 | |
| 20260503172501 | -17 | 6 | 11.3 | 11.3 | 0.00 | 0.00 | 0.00 | -999.0 | |
| 20260503172200 | -17 | 13 | 20.9 | 20.9 | 0.00 | 0.00 | 0.00 | -999.0 | |
| 20260503172100 | -17 | 359 | 20.9 | 20.9 | 0.00 | 0.00 | 0.00 | -999.0 | |
| 20260503171900 | -17 | 335 | 19.3 | 19.3 | 0.00 | 0.00 | 0.00 | -999.0 | |
| 20260503171800 | -17 | 356 | 24.1 | 24.1 | 0.00 | 0.00 | 0.00 | -999.0 | |
| 20260503171700 | -17 | 4 | 25.7 | 25.7 | 0.00 | 0.00 | 0.00 | -999.0 | |
| 20260503171600 | -17 | 20 | 25.7 | 25.7 | 0.00 | 0.00 | 0.00 | -999.0 | |
| 20260503171501 | -17 | 14 | 24.1 | 24.1 | 0.00 | 0.00 | 0.00 | -999.0 | |
| 20260503171400 | -17 | 14 | 17.7 | 17.7 | 0.00 | 0.00 | 0.00 | -999.0 | |
| 20260503171300 | -17 | 30 | 12.9 | 12.9 | 0.00 | 0.00 | 0.00 | -999.0 | |
| 20260503171200 | -17 | 25 | 14.5 | 14.5 | 0.00 | 0.00 | 0.00 | -999.0 | |
| 20260503171100 | -17 | 19 | 11.3 | 11.3 | 0.00 | 0.00 | 0.00 | -999.0 | |
| 20260503171000 | -17 | 17 | 9.7 | 9.7 | 0.00 | 0.00 | 0.00 | -999.0 | |
| 20260503170901 | -17 | 4 | 9.7 | 9.7 | 0.00 | 0.00 | 0.00 | -999.0 | |
| 20260503170800 | -17 | 14 | 9.7 | 9.7 | 0.00 | 0.00 | 0.00 | -999.0 | |
| 20260503170700 | -17 | 6 | 17.7 | 17.7 | 0.00 | 0.00 | 0.00 | -999.0 | |
| 20260503170600 | -17 | 352 | 12.9 | 12.9 | 0.00 | 0.00 | 0.00 | -999.0 | |
| 20260503170501 | -17 | 346 | 17.7 | 17.7 | 0.00 | 0.00 | 0.00 | -999.0 | |
| 20260503170400 | -17 | 28 | 20.9 | 20.9 | 0.00 | 0.00 | 0.00 | -999.0 | |
| 20260503170300 | -17 | 338 | 20.9 | 20.9 | 0.00 | 0.00 | 0.00 | -999.0 | |
| 20260503170201 | -17 | 5 | 19.3 | 19.3 | 0.00 | 0.00 | 0.00 | -999.0 |